Total_Precipitation_Accumulation
1.30 1.40 1.41 1.20 0.95 0.85 0.86 0.87 0.88 0.88 0.92 0.96 0.88 0.86 0.92 0.96 0.92 1.02 1.13 1.22 1.33 1.43 1.44 1.49 1.55 1.54 1.70 1.74 1.85 1.95 2.00 1.97 1.76 1.53 1.39 1.40 1.41 1.39 1.36 1.26 1.27 1.29 1.21
1.17 1.17 1.01 0.82 0.71 0.67 0.65 0.63 0.63 0.66 0.65 0.67 0.65 0.61 0.68 0.81 0.84 0.93 0.98 0.98 1.08 1.21 1.29 1.34 1.33 1.34 1.46 1.54 1.62 1.71 1.85 1.91 1.82 1.63 1.46 1.36 1.25 1.29 1.44 1.47 1.44 1.34 1.33
0.76 0.81 0.78 0.69 0.64 0.61 0.57 0.55 0.52 0.56 0.59 0.59 0.56 0.56 0.57 0.65 0.80 0.87 0.89 0.88 0.89 0.93 0.99 1.02 1.06 1.16 1.33 1.38 1.39 1.50 1.67 1.74 1.84 1.71 1.56 1.45 1.28 1.25 1.43 1.41 1.44 1.62 1.52
0.54 0.58 0.61 0.59 0.58 0.60 0.60 0.57 0.53 0.52 0.54 0.54 0.50 0.48 0.55 0.65 0.73 0.82 0.84 0.81 0.79 0.83 0.88 0.86 0.85 0.91 1.05 1.20 1.28 1.45 1.62 1.77 1.84 1.76 1.68 1.62 1.50 1.39 1.48 1.58 1.60 1.69 1.71
0.43 0.44 0.51 0.55 0.56 0.54 0.56 0.53 0.51 0.51 0.50 0.47 0.45 0.46 0.52 0.57 0.62 0.76 0.79 0.79 0.82 0.78 0.80 0.83 0.83 0.83 0.86 0.93 0.93 1.13 1.35 1.59 1.70 1.77 1.75 1.74 1.65 1.57 1.49 1.64 1.70 1.79 1.88
0.33 0.34 0.41 0.49 0.51 0.53 0.52 0.50 0.47 0.48 0.49 0.47 0.44 0.45 0.46 0.43 0.64 0.71 0.73 0.78 0.85 0.88 0.84 0.84 0.80 0.78 0.87 0.87 0.84 0.87 1.02 1.18 1.35 1.47 1.53 1.56 1.60 1.66 1.76 1.78 1.76 1.80 1.83
0.31 0.34 0.39 0.42 0.40 0.45 0.48 0.43 0.40 0.44 0.47 0.47 0.47 0.46 0.45 0.43 0.47 0.49 0.61 0.72 0.86 0.89 0.85 0.93 0.96 0.86 0.89 0.92 0.96 0.88 0.81 0.85 1.02 1.22 1.32 1.35 1.43 1.50 1.72 1.77 1.79 1.81 1.69
0.31 0.33 0.37 0.38 0.38 0.36 0.39 0.37 0.36 0.41 0.46 0.46 0.51 0.50 0.44 0.38 0.40 0.40 0.48 0.60 0.74 0.78 0.78 0.87 1.09 1.11 1.00 1.00 1.05 1.09 0.97 0.81 0.82 0.88 1.06 1.22 1.28 1.44 1.77 1.98 1.92 1.70 1.62
0.34 0.32 0.32 0.34 0.37 0.36 0.32 0.32 0.34 0.40 0.44 0.42 0.43 0.46 0.44 0.40 0.40 0.41 0.44 0.52 0.61 0.63 0.67 0.80 0.94 1.05 1.03 1.02 0.99 1.05 1.06 0.93 0.89 0.92 0.90 1.00 1.16 1.34 1.60 1.89 1.99 1.90 1.68
0.33 0.34 0.34 0.33 0.31 0.33 0.32 0.32 0.33 0.39 0.45 0.47 0.45 0.41 0.40 0.39 0.41 0.43 0.47 0.46 0.49 0.47 0.53 0.72 0.92 0.89 0.88 0.94 0.98 1.07 1.16 1.00 0.91 0.99 0.95 0.98 1.02 1.24 1.59 1.79 1.93 1.91 1.75
0.39 0.42 0.41 0.37 0.36 0.40 0.42 0.40 0.39 0.40 0.43 0.46 0.44 0.42 0.39 0.39 0.44 0.44 0.47 0.44 0.47 0.47 0.51 0.63 0.68 0.69 0.71 0.80 0.89 0.96 1.10 1.00 1.01 1.15 1.17 1.11 1.17 1.21 1.33 1.49 1.72 1.88 1.79
0.42 0.43 0.43 0.43 0.43 0.46 0.50 0.50 0.50 0.48 0.48 0.50 0.50 0.49 0.46 0.43 0.43 0.45 0.47 0.47 0.50 0.50 0.55 0.59 0.58 0.58 0.63 0.69 0.71 0.77 0.93 1.04 1.11 1.26 1.31 1.25 1.18 1.20 1.24 1.29 1.42 1.55 1.57
0.45 0.45 0.45 0.46 0.48 0.47 0.49 0.52 0.54 0.52 0.49 0.51 0.51 0.51 0.52 0.49 0.45 0.46 0.48 0.50 0.52 0.51 0.54 0.60 0.62 0.64 0.66 0.64 0.66 0.72 0.86 1.03 1.21 1.25 1.16 1.10 1.13 1.16 1.17 1.30 1.38 1.44 1.46
0.50 0.50 0.48 0.46 0.46 0.46 0.48 0.48 0.48 0.49 0.48 0.49 0.51 0.50 0.48 0.47 0.41 0.40 0.42 0.47 0.53 0.55 0.57 0.62 0.65 0.67 0.65 0.61 0.68 0.79 0.92 1.12 1.20 1.14 1.09 0.97 0.99 1.14 1.19 1.19 1.24 1.25 1.30
0.54 0.54 0.51 0.47 0.43 0.44 0.44 0.45 0.47 0.46 0.50 0.54 0.54 0.55 0.51 0.46 0.47 0.52 0.50 0.45 0.46 0.51 0.59 0.64 0.68 0.75 0.76 0.79 0.88 0.96 0.96 1.00 1.06 0.99 1.03 0.97 0.93 1.01 1.07 1.06 1.07 1.03 1.02
0.51 0.51 0.49 0.51 0.48 0.44 0.43 0.46 0.52 0.54 0.58 0.54 0.54 0.53 0.49 0.47 0.52 0.49 0.49 0.51 0.52 0.57 0.65 0.69 0.77 0.85 0.89 0.93 0.98 0.97 0.95 0.95 0.98 0.97 0.99 0.98 0.91 0.91 0.94 0.97 1.01 1.04 1.05
0.48 0.45 0.44 0.47 0.48 0.47 0.47 0.47 0.50 0.49 0.49 0.47 0.45 0.45 0.45 0.46 0.45 0.45 0.47 0.49 0.53 0.59 0.62 0.72 0.92 0.95 0.90 0.92 0.97 0.95 0.85 0.78 0.80 0.83 0.83 0.83 0.81 0.82 0.87 0.90 0.92 0.99 1.02
0.54 0.58 0.52 0.47 0.48 0.50 0.50 0.48 0.47 0.49 0.51 0.49 0.43 0.41 0.42 0.43 0.42 0.42 0.45 0.46 0.45 0.48 0.50 0.61 0.78 0.82 0.83 0.87 0.85 0.81 0.75 0.69 0.69 0.68 0.67 0.67 0.70 0.75 0.78 0.83 0.83 0.82 0.89
0.49 0.54 0.55 0.54 0.52 0.50 0.49 0.46 0.45 0.44 0.46 0.50 0.47 0.46 0.48 0.48 0.47 0.47 0.48 0.42 0.41 0.43 0.48 0.56 0.65 0.71 0.72 0.72 0.72 0.71 0.70 0.70 0.68 0.66 0.66 0.68 0.69 0.72 0.72 0.71 0.75 0.80 0.80
0.44 0.52 0.55 0.52 0.52 0.53 0.50 0.49 0.50 0.48 0.48 0.49 0.45 0.46 0.49 0.47 0.45 0.45 0.45 0.45 0.46 0.46 0.46 0.48 0.55 0.60 0.63 0.64 0.66 0.68 0.69 0.72 0.70 0.68 0.66 0.68 0.73 0.75 0.74 0.74 0.74 0.75 0.76
0.43 0.46 0.52 0.50 0.48 0.51 0.54 0.53 0.56 0.55 0.52 0.52 0.52 0.55 0.56 0.51 0.49 0.50 0.51 0.51 0.51 0.50 0.49 0.47 0.49 0.54 0.60 0.66 0.71 0.73 0.71 0.73 0.75 0.73 0.72 0.74 0.76 0.78 0.77 0.77 0.78 0.78 0.77
0.48 0.45 0.45 0.46 0.47 0.47 0.51 0.52 0.52 0.51 0.51 0.53 0.55 0.59 0.59 0.53 0.52 0.54 0.54 0.52 0.49 0.49 0.51 0.51 0.52 0.55 0.60 0.65 0.71 0.75 0.76 0.80 0.86 0.89 0.88 0.86 0.88 0.88 0.86 0.85 0.84 0.86 0.86
0.49 0.50 0.49 0.47 0.45 0.49 0.50 0.48 0.50 0.51 0.53 0.55 0.55 0.55 0.53 0.52 0.53 0.52 0.53 0.54 0.52 0.52 0.54 0.56 0.56 0.57 0.61 0.66 0.71 0.77 0.79 0.80 0.89 0.99 1.04 1.02 0.99 0.97 0.96 0.94 0.91 0.93 0.95
0.45 0.49 0.47 0.45 0.46 0.46 0.45 0.46 0.48 0.48 0.48 0.50 0.52 0.52 0.53 0.54 0.54 0.54 0.56 0.55 0.55 0.54 0.55 0.59 0.60 0.59 0.60 0.64 0.69 0.75 0.81 0.87 0.93 1.00 1.08 1.10 1.04 0.98 0.97 0.96 0.93 0.93 0.99
0.39 0.44 0.45 0.46 0.48 0.48 0.48 0.50 0.49 0.48 0.46 0.46 0.47 0.49 0.50 0.52 0.54 0.57 0.59 0.61 0.61 0.59 0.59 0.62 0.64 0.65 0.65 0.65 0.68 0.72 0.85 0.93 0.94 0.96 1.01 1.08 1.05 0.99 0.97 0.97 0.96 0.97 1.01
0.40 0.40 0.44 0.47 0.48 0.48 0.48 0.50 0.50 0.50 0.50 0.48 0.50 0.54 0.55 0.56 0.56 0.56 0.58 0.60 0.61 0.59 0.57 0.57 0.57 0.59 0.62 0.63 0.65 0.73 0.82 0.81 0.86 0.95 0.99 1.05 1.12 1.09 1.05 1.06 1.04 1.05 1.05